| time (UTC) | temp F | wind direction | speed MPH | gust MPH | rain 1hr in | rain 24hr in | rain mn in | humidity % | barometer mb |
| 20260506133102 | 46 | 44 | 2.0 | 4.0 | 0.00 | 1.45 | 0.38 | 97 | 1010.5 |
| 20260506133004 | 46 | 34 | 2.0 | 4.0 | 0.00 | 1.45 | 0.38 | 97 | 1010.5 |
| 20260506132803 | 47 | 49 | 1.0 | 4.0 | 0.00 | 1.45 | 0.38 | 97 | 1010.5 |
| 20260506132724 | 47 | 57 | 1.0 | 4.0 | 0.00 | 1.45 | 0.38 | 97 | 1010.4 |
| 20260506132603 | 46 | 50 | 1.0 | 4.0 | 0.00 | 1.45 | 0.38 | 97 | 1010.4 |
| 20260506132403 | 46 | 40 | 1.0 | 4.0 | 0.00 | 1.45 | 0.38 | 97 | 1010.6 |
| 20260506132305 | 46 | 37 | 1.0 | 4.0 | 0.00 | 1.45 | 0.38 | 97 | 1010.4 |
| 20260506131903 | 47 | 93 | 0.0 | 2.0 | 0.00 | 1.45 | 0.38 | 97 | 1010.4 |
| 20260506131803 | 47 | 104 | 1.0 | 2.0 | 0.00 | 1.45 | 0.38 | 97 | 1010.3 |
| 20260506131703 | 47 | 107 | 1.0 | 2.0 | 0.00 | 1.45 | 0.38 | 97 | 1010.3 |
| 20260506131602 | 47 | 113 | 1.0 | 2.0 | 0.00 | 1.45 | 0.38 | 97 | 1010.2 |
| 20260506131303 | 46 | 235 | 1.0 | 4.0 | 0.00 | 1.45 | 0.38 | 98 | 1010.0 |
| 20260506131102 | 46 | 255 | 1.0 | 4.0 | 0.00 | 1.45 | 0.38 | 97 | 1010.0 |
| 20260506131003 | 46 | 274 | 2.0 | 4.0 | 0.00 | 1.45 | 0.38 | 97 | 1010.0 |
| 20260506130902 | 46 | 287 | 2.0 | 4.0 | 0.00 | 1.45 | 0.38 | 97 | 1009.9 |
| 20260506130603 | 46 | 310 | 2.0 | 4.0 | 0.00 | 1.45 | 0.38 | 98 | 1010.0 |
| 20260506130524 | 46 | 296 | 2.0 | 4.0 | 0.00 | 1.45 | 0.38 | 97 | 1010.1 |
| 20260506130303 | 46 | 89 | 2.0 | 4.0 | 0.00 | 1.45 | 0.38 | 98 | 1010.1 |
| 20260506125802 | 46 | 72 | 2.0 | 6.0 | 0.00 | 1.45 | 0.38 | 98 | 1010.0 |
| 20260506125624 | 46 | 77 | 2.0 | 6.0 | 0.00 | 1.45 | 0.38 | 98 | 1009.7 |
| 20260506125503 | 46 | 68 | 2.0 | 6.0 | 0.00 | 1.45 | 0.38 | 98 | 1009.6 |
| 20260506125402 | 46 | 68 | 2.0 | 6.0 | 0.00 | 1.45 | 0.38 | 98 | 1009.7 |
| 20260506125305 | 46 | 66 | 2.0 | 6.0 | 0.00 | 1.45 | 0.38 | 98 | 1009.8 |
| 20260506125103 | 46 | 72 | 2.0 | 6.0 | 0.00 | 1.45 | 0.38 | 98 | 1009.4 |
| 20260506125002 | 46 | 80 | 2.0 | 4.0 | 0.00 | 1.45 | 0.38 | 98 | 1009.5 |
| 20260506124603 | 46 | 77 | 1.0 | 4.0 | 0.00 | 1.45 | 0.38 | 98 | 1009.5 |
| 20260506124303 | 46 | 73 | 1.0 | 3.0 | 0.00 | 1.45 | 0.38 | 98 | 1009.8 |
| 20260506124223 | 46 | 78 | 1.0 | 3.0 | 0.00 | 1.45 | 0.38 | 98 | 1009.8 |
| 20260506124124 | 46 | 77 | 1.0 | 3.0 | 0.00 | 1.45 | 0.38 | 98 | 1009.7 |
| 20260506124003 | 46 | 87 | 1.0 | 3.0 | 0.00 | 1.45 | 0.38 | 98 | 1009.7 |
| 20260506123924 | 46 | 87 | 1.0 | 3.0 | 0.00 | 1.45 | 0.38 | 98 | 1009.5 |
| 20260506123602 | 46 | 89 | 1.0 | 3.0 | 0.00 | 1.45 | 0.38 | 98 | 1009.6 |
| 20260506123503 | 46 | 101 | 1.0 | 3.0 | 0.00 | 1.45 | 0.38 | 98 | 1009.6 |
| 20260506123402 | 46 | 104 | 1.0 | 3.0 | 0.00 | 1.45 | 0.38 | 98 | 1009.6 |
| 20260506123324 | 46 | 110 | 1.0 | 3.0 | 0.00 | 1.45 | 0.38 | 98 | 1009.7 |
| 20260506123103 | 46 | 114 | 0.0 | 3.0 | 0.00 | 1.45 | 0.38 | 98 | 1009.6 |
| 20260506123002 | 46 | 97 | 0.0 | 3.0 | 0.00 | 1.45 | 0.38 | 98 | 1009.5 |
| 20260506122902 | 46 | 97 | 0.0 | 3.0 | 0.00 | 1.45 | 0.38 | 98 | 1009.5 |
| 20260506122603 | 46 | 89 | 0.0 | 3.0 | 0.00 | 1.45 | 0.38 | 98 | 1009.7 |
| 20260506122402 | 46 | 90 | 0.0 | 3.0 | 0.00 | 1.45 | 0.38 | 98 | 1009.8 |
| 20260506122305 | 45 | 94 | 0.0 | 2.0 | 0.00 | 1.45 | 0.38 | 98 | 1009.8 |
| 20260506122103 | 45 | 104 | 0.0 | 2.0 | 0.00 | 1.45 | 0.38 | 98 | 1009.8 |
| 20260506122002 | 45 | 104 | 0.0 | 2.0 | 0.00 | 1.45 | 0.38 | 98 | 1009.8 |
| 20260506121924 | 45 | 104 | 0.0 | 2.0 | 0.00 | 1.45 | 0.38 | 98 | 1009.5 |
| 20260506121703 | 45 | 89 | 0.0 | 2.0 | 0.00 | 1.45 | 0.38 | 98 | 1009.7 |
| 20260506121603 | 45 | 87 | 0.0 | 2.0 | 0.00 | 1.45 | 0.38 | 98 | 1009.7 |
| 20260506121302 | 45 | 92 | 0.0 | 2.0 | 0.00 | 1.45 | 0.38 | 98 | 1009.5 |
| 20260506121103 | 45 | 102 | 1.0 | 2.0 | 0.00 | 1.45 | 0.38 | 98 | 1009.6 |
| 20260506121003 | 45 | 102 | 1.0 | 2.0 | 0.00 | 1.45 | 0.38 | 98 | 1009.6 |
| 20260506120904 | 45 | 104 | 0.0 | 2.0 | 0.00 | 1.45 | 0.38 | 98 | 1009.5 |
| 20260506120702 | 45 | 156 | 0.0 | 2.0 | 0.00 | 1.45 | 0.38 | 98 | 1009.7 |
| 20260506120303 | 45 | 210 | 0.0 | 2.0 | 0.00 | 1.45 | 0.38 | 98 | 1009.6 |
| 20260506120124 | 45 | 0 | 0.0 | 0.0 | 0.00 | 1.45 | 0.38 | 98 | 1009.5 |
| 20260506120024 | 45 | 0 | 0.0 | 0.0 | 0.00 | 1.45 | 0.38 | 98 | 1009.6 |
| 20260506115924 | 45 | 0 | 0.0 | 0.0 | 0.00 | 1.45 | 0.38 | 98 | 1009.7 |
| 20260506115502 | 45 | 0 | 0.0 | 0.0 | 0.00 | 1.45 | 0.38 | 98 | 1009.5 |
| 20260506115306 | 45 | 0 | 0.0 | 0.0 | 0.00 | 1.45 | 0.38 | 98 | 1009.4 |
| 20260506115202 | 45 | 0 | 0.0 | 0.0 | 0.00 | 1.45 | 0.38 | 98 | 1009.5 |
| 20260506115103 | 45 | 0 | 0.0 | 0.0 | 0.00 | 1.45 | 0.38 | 98 | 1009.4 |
| 20260506115003 | 45 | 0 | 0.0 | 0.0 | 0.00 | 1.45 | 0.38 | 98 | 1009.5 |
| 20260506114924 | 45 | 0 | 0.0 | 0.0 | 0.00 | 1.45 | 0.38 | 98 | 1009.4 |
| 20260506114602 | 44 | 0 | 0.0 | 0.0 | 0.00 | 1.45 | 0.38 | 98 | 1009.4 |
| 20260506114502 | 44 | 0 | 0.0 | 0.0 | 0.00 | 1.45 | 0.38 | 98 | 1009.4 |
| 20260506114203 | 44 | 0 | 0.0 | 0.0 | 0.00 | 1.45 | 0.38 | 98 | 1009.2 |
| 20260506114002 | 45 | 0 | 0.0 | 0.0 | 0.00 | 1.45 | 0.38 | 98 | 1009.2 |
| 20260506113603 | 45 | 0 | 0.0 | 0.0 | 0.00 | 1.45 | 0.38 | 98 | 1009.4 |
| 20260506113102 | 45 | 0 | 0.0 | 0.0 | 0.00 | 1.45 | 0.38 | 98 | 1009.2 |
| 20260506113003 | 45 | 0 | 0.0 | 0.0 | 0.00 | 1.45 | 0.38 | 98 | 1009.1 |
| 20260506112924 | 44 | 0 | 0.0 | 0.0 | 0.00 | 1.45 | 0.38 | 98 | 1009.2 |
| 20260506112803 | 44 | 0 | 0.0 | 0.0 | 0.00 | 1.45 | 0.38 | 98 | 1009.1 |
| 20260506112703 | 44 | 0 | 0.0 | 0.0 | 0.00 | 1.45 | 0.38 | 98 | 1009.1 |
| 20260506112403 | 44 | 0 | 0.0 | 0.0 | 0.00 | 1.45 | 0.38 | 98 | 1009.0 |
| 20260506111803 | 44 | 0 | 0.0 | 0.0 | 0.00 | 1.45 | 0.38 | 98 | 1008.8 |
| 20260506110603 | 44 | 68 | 1.0 | 3.0 | 0.00 | 1.45 | 0.38 | 98 | 1009.0 |
| 20260506110502 | 44 | 63 | 1.0 | 3.0 | 0.00 | 1.45 | 0.38 | 98 | 1008.7 |
| 20260506105903 | 44 | 57 | 1.0 | 3.0 | 0.00 | 1.45 | 0.38 | 98 | 1008.3 |
| 20260506105602 | 44 | 90 | 0.0 | 3.0 | 0.00 | 1.45 | 0.38 | 98 | 1008.5 |
| 20260506105503 | 44 | 103 | 1.0 | 3.0 | 0.00 | 1.45 | 0.38 | 98 | 1008.3 |
| 20260506105403 | 44 | 88 | 1.0 | 3.0 | 0.00 | 1.45 | 0.38 | 98 | 1008.2 |
| 20260506105003 | 44 | 77 | 2.0 | 6.0 | 0.00 | 1.45 | 0.38 | 98 | 1008.6 |
| 20260506104603 | 44 | 54 | 2.0 | 6.0 | 0.00 | 1.45 | 0.38 | 98 | 1008.8 |
| 20260506104403 | 44 | 51 | 2.0 | 6.0 | 0.00 | 1.45 | 0.38 | 98 | 1008.7 |
| 20260506104103 | 44 | 50 | 2.0 | 6.0 | 0.01 | 1.45 | 0.38 | 98 | 1008.5 |
| 20260506104024 | 44 | 49 | 2.0 | 6.0 | 0.01 | 1.45 | 0.38 | 98 | 1008.7 |
| 20260506103903 | 44 | 53 | 2.0 | 6.0 | 0.01 | 1.45 | 0.38 | 98 | 1008.3 |
| 20260506103803 | 44 | 57 | 2.0 | 6.0 | 0.01 | 1.45 | 0.38 | 98 | 1008.5 |
| 20260506103603 | 44 | 70 | 2.0 | 6.0 | 0.01 | 1.45 | 0.38 | 98 | 1008.5 |
| 20260506103003 | 44 | 92 | 1.0 | 2.0 | 0.02 | 1.45 | 0.38 | 98 | 1008.6 |
| 20260506102802 | 44 | 79 | 1.0 | 2.0 | 0.02 | 1.45 | 0.38 | 98 | 1008.3 |
| 20260506102703 | 44 | 77 | 0.0 | 2.0 | 0.02 | 1.45 | 0.38 | 98 | 1008.3 |
| 20260506102503 | 44 | 86 | 0.0 | 2.0 | 0.03 | 1.45 | 0.38 | 98 | 1008.0 |
| 20260506102402 | 44 | 58 | 0.0 | 2.0 | 0.03 | 1.45 | 0.38 | 98 | 1008.0 |
| 20260506102103 | 44 | 76 | 0.0 | 2.0 | 0.03 | 1.45 | 0.38 | 98 | 1007.8 |
| 20260506102002 | 44 | 84 | 0.0 | 2.0 | 0.04 | 1.45 | 0.38 | 98 | 1007.6 |
| 20260506101403 | 44 | 88 | 0.0 | 2.0 | 0.04 | 1.45 | 0.38 | 98 | 1007.7 |
| 20260506101003 | 44 | 78 | 0.0 | 3.0 | 0.05 | 1.45 | 0.38 | 98 | 1007.4 |
| 20260506100903 | 44 | 82 | 1.0 | 3.0 | 0.05 | 1.45 | 0.38 | 98 | 1007.3 |
| 20260506100603 | 44 | 83 | 1.0 | 3.0 | 0.05 | 1.45 | 0.38 | 98 | 1007.5 |
| 20260506100403 | 44 | 74 | 1.0 | 4.0 | 0.05 | 1.45 | 0.38 | 98 | 1007.5 |
| 20260506100303 | 44 | 80 | 1.0 | 4.0 | 0.05 | 1.45 | 0.38 | 98 | 1007.8 |
| 20260506095902 | 44 | 51 | 2.0 | 6.0 | 0.06 | 1.45 | 0.38 | 98 | 1007.9 |
| 20260506095403 | 44 | 22 | 3.0 | 8.0 | 0.06 | 1.45 | 0.38 | 98 | 1008.3 |
| 20260506095305 | 44 | 17 | 3.0 | 8.0 | 0.06 | 1.45 | 0.38 | 98 | 1008.5 |
| 20260506095024 | 44 | 9 | 3.0 | 8.0 | 0.06 | 1.45 | 0.38 | 98 | 1008.3 |
| 20260506094602 | 45 | 346 | 2.0 | 9.0 | 0.06 | 1.45 | 0.38 | 98 | 1008.3 |
| 20260506094303 | 45 | 323 | 1.0 | 9.0 | 0.06 | 1.45 | 0.38 | 98 | 1008.5 |
| 20260506093703 | 45 | 92 | 0.0 | 2.0 | 0.05 | 1.44 | 0.37 | 98 | 1008.7 |
| 20260506093624 | 45 | 107 | 0.0 | 2.0 | 0.05 | 1.44 | 0.37 | 98 | 1008.5 |
| 20260506093503 | 45 | 107 | 0.0 | 2.0 | 0.05 | 1.44 | 0.37 | 98 | 1008.8 |
| 20260506093303 | 45 | 107 | 0.0 | 2.0 | 0.05 | 1.44 | 0.37 | 98 | 1008.6 |
| 20260506093224 | 45 | 106 | 0.0 | 2.0 | 0.05 | 1.44 | 0.37 | 98 | 1008.7 |
| 20260506093123 | 45 | 103 | 0.0 | 2.0 | 0.04 | 1.43 | 0.36 | 98 | 1008.7 |
| 20260506093003 | 45 | 103 | 0.0 | 2.0 | 0.04 | 1.43 | 0.36 | 98 | 1008.8 |
| 20260506092503 | 45 | 87 | 0.0 | 1.0 | 0.04 | 1.42 | 0.35 | 98 | 1008.7 |
| 20260506092402 | 45 | 87 | 0.0 | 1.0 | 0.04 | 1.42 | 0.35 | 98 | 1008.7 |
| 20260506092202 | 45 | 0 | 0.0 | 0.0 | 0.05 | 1.42 | 0.35 | 98 | 1008.7 |
| 20260506092103 | 45 | 0 | 0.0 | 0.0 | 0.05 | 1.42 | 0.35 | 98 | 1008.5 |
| 20260506091803 | 45 | 0 | 0.0 | 0.0 | 0.04 | 1.41 | 0.34 | 98 | 1008.3 |
| 20260506091603 | 45 | 0 | 0.0 | 0.0 | 0.05 | 1.41 | 0.34 | 98 | 1008.2 |
| 20260506091503 | 45 | 0 | 0.0 | 0.0 | 0.05 | 1.41 | 0.34 | 98 | 1008.2 |
| 20260506091424 | 45 | 91 | 0.0 | 1.0 | 0.05 | 1.41 | 0.34 | 98 | 1008.5 |
| 20260506091105 | 45 | 87 | 0.0 | 1.0 | 0.05 | 1.40 | 0.33 | 98 | 1008.3 |
| 20260506090505 | 45 | 87 | 0.0 | 1.0 | 0.06 | 1.40 | 0.33 | 98 | 1008.5 |
| 20260506090303 | 45 | 117 | 0.0 | 1.0 | 0.06 | 1.40 | 0.33 | 98 | 1008.2 |
| 20260506090003 | 45 | 107 | 0.0 | 1.0 | 0.05 | 1.39 | 0.32 | 98 | 1007.9 |
| 20260506085903 | 45 | 101 | 0.0 | 1.0 | 0.05 | 1.39 | 0.32 | 98 | 1008.1 |
| 20260506085703 | 45 | 101 | 0.0 | 1.0 | 0.06 | 1.39 | 0.32 | 98 | 1008.0 |
| 20260506085603 | 45 | 101 | 0.0 | 1.0 | 0.06 | 1.39 | 0.32 | 98 | 1008.2 |
| 20260506085524 | 45 | 101 | 0.0 | 1.0 | 0.06 | 1.39 | 0.32 | 98 | 1008.2 |
| 20260506085403 | 45 | 100 | 0.0 | 1.0 | 0.06 | 1.39 | 0.32 | 98 | 1008.0 |
| 20260506085305 | 45 | 94 | 0.0 | 1.0 | 0.06 | 1.39 | 0.32 | 98 | 1008.1 |
| 20260506085203 | 45 | 90 | 0.0 | 1.0 | 0.06 | 1.39 | 0.32 | 98 | 1007.7 |
| 20260506085103 | 45 | 90 | 0.0 | 1.0 | 0.06 | 1.39 | 0.32 | 98 | 1007.6 |
| 20260506084803 | 45 | 72 | 1.0 | 3.0 | 0.07 | 1.39 | 0.32 | 98 | 1007.9 |
| 20260506084603 | 45 | 57 | 1.0 | 4.0 | 0.07 | 1.39 | 0.32 | 98 | 1007.8 |
| 20260506084403 | 45 | 56 | 1.0 | 4.0 | 0.07 | 1.39 | 0.32 | 98 | 1007.8 |
| 20260506084203 | 45 | 54 | 1.0 | 4.0 | 0.07 | 1.39 | 0.32 | 98 | 1007.8 |
| 20260506083902 | 45 | 50 | 1.0 | 4.0 | 0.08 | 1.39 | 0.32 | 98 | 1008.0 |
| 20260506083824 | 45 | 50 | 1.0 | 4.0 | 0.08 | 1.39 | 0.32 | 98 | 1007.6 |
| 20260506083603 | 45 | 77 | 0.0 | 2.0 | 0.08 | 1.39 | 0.32 | 98 | 1007.9 |
| 20260506083302 | 45 | 85 | 0.0 | 3.0 | 0.08 | 1.39 | 0.32 | 98 | 1008.1 |
| 20260506083203 | 45 | 85 | 0.0 | 3.0 | 0.08 | 1.39 | 0.32 | 98 | 1008.2 |
| 20260506083102 | 45 | 86 | 0.0 | 3.0 | 0.08 | 1.39 | 0.32 | 98 | 1008.3 |
| 20260506082802 | 45 | 67 | 1.0 | 3.0 | 0.08 | 1.38 | 0.31 | 98 | 1008.5 |
| 20260506082703 | 45 | 65 | 1.0 | 3.0 | 0.08 | 1.38 | 0.31 | 98 | 1008.1 |
| 20260506082603 | 45 | 65 | 1.0 | 3.0 | 0.08 | 1.38 | 0.31 | 98 | 1008.1 |
| 20260506082403 | 45 | 60 | 1.0 | 3.0 | 0.08 | 1.38 | 0.31 | 98 | 1008.2 |
| 20260506082103 | 45 | 58 | 1.0 | 3.0 | 0.08 | 1.37 | 0.30 | 98 | 1008.5 |
| 20260506081503 | 45 | 87 | 0.0 | 2.0 | 0.07 | 1.36 | 0.29 | 98 | 1008.3 |
| 20260506081303 | 45 | 86 | 0.0 | 2.0 | 0.08 | 1.36 | 0.29 | 98 | 1008.6 |
| 20260506081102 | 45 | 74 | 0.0 | 2.0 | 0.07 | 1.35 | 0.28 | 98 | 1008.7 |
| 20260506081002 | 45 | 69 | 0.0 | 2.0 | 0.07 | 1.35 | 0.28 | 98 | 1008.6 |
| 20260506080903 | 45 | 67 | 0.0 | 2.0 | 0.07 | 1.35 | 0.28 | 98 | 1008.6 |
| 20260506080803 | 45 | 62 | 0.0 | 2.0 | 0.07 | 1.35 | 0.28 | 98 | 1008.5 |
| 20260506080702 | 45 | 56 | 0.0 | 2.0 | 0.07 | 1.35 | 0.28 | 98 | 1008.5 |
| 20260506080524 | 45 | 46 | 0.0 | 2.0 | 0.06 | 1.34 | 0.27 | 98 | 1008.5 |
| 20260506073524 | 45 | 80 | 1.0 | 3.0 | 0.05 | 1.31 | 0.24 | 98 | 1008.2 |
| 20260506073403 | 45 | 79 | 1.0 | 3.0 | 0.05 | 1.31 | 0.24 | 98 | 1008.2 |
| 20260506073324 | 45 | 79 | 1.0 | 3.0 | 0.05 | 1.31 | 0.24 | 98 | 1008.2 |
| 20260506073203 | 45 | 76 | 1.0 | 3.0 | 0.05 | 1.31 | 0.24 | 98 | 1008.1 |
| 20260506073103 | 45 | 78 | 1.0 | 3.0 | 0.05 | 1.31 | 0.24 | 98 | 1008.0 |
| 20260506072803 | 45 | 78 | 1.0 | 3.0 | 0.04 | 1.30 | 0.23 | 98 | 1008.0 |
| 20260506072703 | 45 | 77 | 1.0 | 3.0 | 0.04 | 1.30 | 0.23 | 98 | 1008.0 |
| 20260506072603 | 45 | 80 | 1.0 | 3.0 | 0.04 | 1.30 | 0.23 | 97 | 1008.0 |
| 20260506072503 | 45 | 85 | 1.0 | 2.0 | 0.04 | 1.30 | 0.23 | 98 | 1007.8 |
| 20260506072103 | 45 | 87 | 0.0 | 1.0 | 0.03 | 1.29 | 0.22 | 97 | 1008.1 |
| 20260506071903 | 45 | 90 | 0.0 | 2.0 | 0.04 | 1.29 | 0.22 | 98 | 1007.7 |
| 20260506071703 | 45 | 94 | 1.0 | 2.0 | 0.04 | 1.29 | 0.22 | 98 | 1008.0 |
| 20260506071603 | 45 | 93 | 1.0 | 2.0 | 0.04 | 1.29 | 0.22 | 98 | 1008.1 |
| 20260506071503 | 45 | 93 | 1.0 | 2.0 | 0.04 | 1.29 | 0.22 | 97 | 1008.0 |
| 20260506071203 | 45 | 93 | 1.0 | 2.0 | 0.04 | 1.28 | 0.21 | 97 | 1007.8 |
| 20260506071124 | 45 | 94 | 1.0 | 2.0 | 0.04 | 1.28 | 0.21 | 97 | 1007.9 |
| 20260506070724 | 45 | 93 | 0.0 | 1.0 | 0.05 | 1.28 | 0.21 | 97 | 1008.0 |
| 20260506070503 | 45 | 78 | 0.0 | 2.0 | 0.05 | 1.28 | 0.21 | 97 | 1008.1 |
| 20260506070403 | 45 | 74 | 0.0 | 2.0 | 0.06 | 1.28 | 0.21 | 97 | 1007.9 |
| 20260506062503 | 45 | 84 | 0.0 | 2.0 | 0.11 | 1.26 | 0.19 | 97 | 1008.0 |
| 20260506062103 | 45 | 79 | 0.0 | 2.0 | 0.11 | 1.26 | 0.19 | 97 | 1008.2 |
| 20260506062003 | 45 | 79 | 0.0 | 2.0 | 0.10 | 1.25 | 0.18 | 97 | 1008.2 |
| 20260506061924 | 45 | 80 | 0.0 | 2.0 | 0.10 | 1.25 | 0.18 | 97 | 1008.2 |
| 20260506061703 | 45 | 83 | 0.0 | 2.0 | 0.10 | 1.25 | 0.18 | 97 | 1008.1 |
| 20260506061103 | 45 | 93 | 0.0 | 3.0 | 0.09 | 1.24 | 0.17 | 97 | 1008.1 |
| 20260506060903 | 45 | 93 | 0.0 | 3.0 | 0.10 | 1.24 | 0.17 | 97 | 1008.1 |
| 20260506060703 | 45 | 94 | 0.0 | 3.0 | 0.09 | 1.23 | 0.16 | 97 | 1008.1 |
| 20260506060603 | 45 | 95 | 0.0 | 3.0 | 0.09 | 1.23 | 0.16 | 97 | 1008.0 |
| 20260506060403 | 45 | 83 | 0.0 | 3.0 | 0.08 | 1.22 | 0.15 | 97 | 1008.1 |
| 20260506060224 | 45 | 79 | 0.0 | 2.0 | 0.08 | 1.22 | 0.15 | 97 | 1008.0 |
| 20260506051203 | 46 | 67 | 1.0 | 3.0 | 0.06 | 1.15 | 0.08 | 98 | 1008.5 |
| 20260506051103 | 46 | 65 | 1.0 | 3.0 | 0.06 | 1.15 | 0.08 | 98 | 1008.7 |
| 20260506051003 | 46 | 64 | 1.0 | 3.0 | 0.05 | 1.14 | 0.07 | 98 | 1008.7 |
| 20260506050903 | 46 | 63 | 1.0 | 3.0 | 0.05 | 1.14 | 0.07 | 98 | 1008.7 |
| 20260506050803 | 46 | 68 | 1.0 | 3.0 | 0.06 | 1.14 | 0.07 | 98 | 1008.7 |
| 20260506050503 | 46 | 80 | 1.0 | 2.0 | 0.06 | 1.14 | 0.07 | 98 | 1008.7 |
| 20260506050403 | 46 | 70 | 1.0 | 3.0 | 0.06 | 1.14 | 0.07 | 98 | 1008.8 |
| 20260506050203 | 46 | 72 | 1.0 | 3.0 | 0.07 | 1.14 | 0.07 | 98 | 1008.7 |
| 20260506045103 | 47 | 58 | 1.0 | 4.0 | 0.07 | 1.13 | 0.06 | 98 | 1009.0 |
| 20260506045003 | 47 | 59 | 1.0 | 4.0 | 0.07 | 1.13 | 0.06 | 98 | 1008.8 |
| 20260506044903 | 47 | 58 | 1.0 | 4.0 | 0.07 | 1.13 | 0.06 | 98 | 1008.8 |
| 20260506044803 | 47 | 57 | 2.0 | 7.0 | 0.08 | 1.13 | 0.06 | 98 | 1008.9 |
| 20260506044703 | 47 | 49 | 2.0 | 7.0 | 0.08 | 1.13 | 0.06 | 98 | 1008.9 |
| 20260506044603 | 47 | 50 | 2.0 | 7.0 | 0.08 | 1.13 | 0.06 | 98 | 1008.8 |
| 20260506044503 | 47 | 49 | 2.0 | 7.0 | 0.08 | 1.13 | 0.06 | 98 | 1008.9 |
| 20260506044403 | 47 | 52 | 2.0 | 7.0 | 0.08 | 1.13 | 0.06 | 98 | 1008.8 |
| 20260506044303 | 47 | 56 | 2.0 | 7.0 | 0.08 | 1.13 | 0.06 | 98 | 1008.7 |
| 20260506044103 | 47 | 66 | 2.0 | 7.0 | 0.08 | 1.12 | 0.05 | 98 | 1008.7 |
| 20260506043703 | 47 | 66 | 1.0 | 7.0 | 0.08 | 1.12 | 0.05 | 98 | 1008.9 |
| 20260506043624 | 47 | 65 | 1.0 | 7.0 | 0.08 | 1.12 | 0.05 | 98 | 1008.9 |
| 20260506043503 | 47 | 63 | 1.0 | 7.0 | 0.09 | 1.12 | 0.05 | 98 | 1008.7 |
| 20260506043303 | 47 | 46 | 1.0 | 7.0 | 0.09 | 1.12 | 0.05 | 98 | 1008.7 |
| 20260506043203 | 47 | 41 | 1.0 | 7.0 | 0.09 | 1.12 | 0.05 | 98 | 1008.7 |
| 20260506043103 | 47 | 31 | 2.0 | 7.0 | 0.08 | 1.11 | 0.04 | 98 | 1008.8 |
| 20260506042902 | 48 | 37 | 2.0 | 6.0 | 0.08 | 1.11 | 0.04 | 98 | 1009.0 |
| 20260506042603 | 48 | 38 | 2.0 | 6.0 | 0.09 | 1.11 | 0.04 | 98 | 1008.8 |
| 20260506042403 | 48 | 40 | 2.0 | 6.0 | 0.09 | 1.11 | 0.04 | 98 | 1008.9 |
| 20260506042003 | 48 | 53 | 1.0 | 4.0 | 0.09 | 1.10 | 0.03 | 98 | 1008.9 |
| 20260506041802 | 48 | 65 | 1.0 | 3.0 | 0.09 | 1.10 | 0.03 | 98 | 1009.1 |
| 20260506041624 | 48 | 73 | 1.0 | 3.0 | 0.09 | 1.10 | 0.03 | 98 | 1008.9 |
| 20260506041302 | 48 | 81 | 1.0 | 4.0 | 0.10 | 1.10 | 0.03 | 98 | 1009.1 |
| 20260506041103 | 48 | 84 | 1.0 | 4.0 | 0.09 | 1.09 | 0.02 | 98 | 1009.0 |
| 20260506040903 | 48 | 89 | 1.0 | 4.0 | 0.09 | 1.09 | 0.02 | 98 | 1009.1 |
| 20260506040703 | 48 | 89 | 1.0 | 4.0 | 0.09 | 1.08 | 0.01 | 98 | 1009.2 |
| 20260506040624 | 48 | 92 | 1.0 | 4.0 | 0.09 | 1.08 | 0.01 | 98 | 1009.1 |
| 20260506040502 | 48 | 91 | 1.0 | 4.0 | 0.09 | 1.08 | 0.01 | 98 | 1009.2 |
| 20260506040424 | 48 | 93 | 0.0 | 4.0 | 0.09 | 1.08 | 0.01 | 98 | 1009.2 |
| 20260506035924 | 48 | 93 | 1.0 | 2.0 | 0.09 | 1.07 | 1.07 | 98 | 1009.2 |
| 20260506035703 | 48 | 89 | 1.0 | 2.0 | 0.10 | 1.07 | 1.07 | 98 | 1009.3 |
| 20260506035603 | 48 | 85 | 1.0 | 2.0 | 0.09 | 1.06 | 1.06 | 98 | 1009.3 |
| 20260506035503 | 48 | 79 | 1.0 | 3.0 | 0.09 | 1.06 | 1.06 | 98 | 1009.3 |
| 20260506035103 | 48 | 78 | 1.0 | 3.0 | 0.10 | 1.06 | 1.06 | 98 | 1009.3 |
| 20260506035003 | 48 | 77 | 1.0 | 3.0 | 0.10 | 1.06 | 1.06 | 98 | 1009.3 |
| 20260506034802 | 48 | 74 | 1.0 | 3.0 | 0.10 | 1.05 | 1.05 | 98 | 1009.3 |
| 20260506034603 | 48 | 80 | 1.0 | 3.0 | 0.10 | 1.05 | 1.05 | 98 | 1009.4 |
| 20260506034503 | 48 | 76 | 1.0 | 6.0 | 0.11 | 1.05 | 1.05 | 98 | 1009.4 |
| 20260506034103 | 48 | 67 | 1.0 | 6.0 | 0.11 | 1.04 | 1.04 | 98 | 1009.3 |
| 20260506033803 | 48 | 63 | 1.0 | 6.0 | 0.12 | 1.04 | 1.04 | 98 | 1009.2 |
| 20260506033603 | 48 | 58 | 1.0 | 6.0 | 0.12 | 1.04 | 1.04 | 98 | 1009.3 |
| 20260506033502 | 48 | 57 | 1.0 | 6.0 | 0.11 | 1.03 | 1.03 | 98 | 1009.2 |
| 20260506033303 | 48 | 57 | 1.0 | 3.0 | 0.12 | 1.03 | 1.03 | 98 | 1009.4 |
| 20260506033103 | 48 | 63 | 1.0 | 3.0 | 0.12 | 1.03 | 1.03 | 98 | 1009.4 |
| 20260506032803 | 48 | 73 | 1.0 | 3.0 | 0.13 | 1.03 | 1.03 | 98 | 1009.2 |
| 20260506032603 | 48 | 72 | 1.0 | 3.0 | 0.13 | 1.02 | 1.02 | 98 | 1009.3 |
| 20260506032403 | 48 | 84 | 1.0 | 3.0 | 0.14 | 1.02 | 1.02 | 98 | 1009.5 |
| 20260506032305 | 48 | 84 | 1.0 | 3.0 | 0.14 | 1.02 | 1.02 | 98 | 1009.5 |
| 20260506032124 | 48 | 81 | 1.0 | 3.0 | 0.13 | 1.01 | 1.02 | 98 | 1009.4 |
| 20260506032003 | 49 | 73 | 0.0 | 3.0 | 0.14 | 1.01 | 1.01 | 98 | 1009.4 |
| 20260506031803 | 49 | 66 | 0.0 | 3.0 | 0.14 | 1.01 | 1.01 | 98 | 1009.3 |
| 20260506031603 | 49 | 0 | 0.0 | 0.0 | 0.15 | 1.01 | 1.01 | 98 | 1009.5 |
| 20260506031503 | 49 | 0 | 0.0 | 0.0 | 0.15 | 1.01 | 1.01 | 98 | 1009.6 |
| 20260506031403 | 49 | 0 | 0.0 | 0.0 | 0.15 | 1.01 | 1.01 | 98 | 1009.6 |
| 20260506031303 | 49 | 0 | 0.0 | 0.0 | 0.14 | 1.00 | 1.00 | 98 | 1009.7 |
| 20260506031102 | 49 | 0 | 0.0 | 0.0 | 0.15 | 1.00 | 1.00 | 98 | 1009.6 |
| 20260506030903 | 49 | 0 | 0.0 | 0.0 | 0.15 | 1.00 | 1.00 | 98 | 1009.5 |
| 20260506030403 | 49 | 0 | 0.0 | 0.0 | 0.15 | 0.99 | 0.99 | 98 | 1009.7 |
| 20260506030303 | 49 | 0 | 0.0 | 0.0 | 0.15 | 0.98 | 0.98 | 98 | 1009.8 |
| 20260506025903 | 49 | 0 | 0.0 | 0.0 | 0.16 | 0.98 | 0.98 | 98 | 1009.6 |
| 20260506025703 | 49 | 0 | 0.0 | 0.0 | 0.15 | 0.97 | 0.97 | 98 | 1009.7 |
| 20260506025602 | 49 | 0 | 0.0 | 0.0 | 0.16 | 0.97 | 0.97 | 97 | 1009.7 |
| 20260506025403 | 49 | 0 | 0.0 | 0.0 | 0.15 | 0.96 | 0.96 | 97 | 1009.5 |
| 20260506025103 | 49 | 0 | 0.0 | 0.0 | 0.16 | 0.96 | 0.96 | 97 | 1009.4 |
| 20260506025003 | 49 | 0 | 0.0 | 0.0 | 0.17 | 0.96 | 0.96 | 97 | 1009.6 |
| 20260506024903 | 49 | 0 | 0.0 | 0.0 | 0.16 | 0.95 | 0.95 | 97 | 1009.4 |
| 20260506024702 | 49 | 0 | 0.0 | 0.0 | 0.17 | 0.95 | 0.95 | 97 | 1009.3 |
| 20260506024603 | 49 | 0 | 0.0 | 0.0 | 0.17 | 0.95 | 0.95 | 97 | 1009.5 |
| 20260506024103 | 49 | 0 | 0.0 | 0.0 | 0.17 | 0.93 | 0.93 | 97 | 1009.2 |
| 20260506024003 | 49 | 0 | 0.0 | 0.0 | 0.17 | 0.93 | 0.93 | 97 | 1009.2 |
| 20260506023503 | 49 | 0 | 0.0 | 0.0 | 0.18 | 0.92 | 0.92 | 97 | 1009.1 |
| 20260506023303 | 49 | 0 | 0.0 | 0.0 | 0.17 | 0.91 | 0.91 | 97 | 1009.1 |
| 20260506023103 | 49 | 0 | 0.0 | 0.0 | 0.18 | 0.91 | 0.91 | 97 | 1009.1 |
| 20260506022903 | 49 | 0 | 0.0 | 0.0 | 0.17 | 0.90 | 0.90 | 97 | 1009.2 |
| 20260506022603 | 49 | 0 | 0.0 | 0.0 | 0.17 | 0.89 | 0.89 | 97 | 1009.1 |
| 20260506022305 | 49 | 0 | 0.0 | 0.0 | 0.17 | 0.88 | 0.88 | 97 | 1009.1 |
| 20260506022124 | 49 | 91 | 0.0 | 1.0 | 0.18 | 0.88 | 0.88 | 97 | 1009.0 |
| 20260506021803 | 49 | 91 | 0.0 | 1.0 | 0.18 | 0.87 | 0.87 | 97 | 1009.0 |
| 20260506021603 | 49 | 91 | 0.0 | 1.0 | 0.17 | 0.86 | 0.86 | 97 | 1009.0 |
| 20260506021503 | 49 | 91 | 0.0 | 1.0 | 0.18 | 0.86 | 0.86 | 97 | 1009.0 |
| 20260506021403 | 49 | 91 | 0.0 | 1.0 | 0.18 | 0.86 | 0.86 | 97 | 1009.0 |
| 20260506021103 | 49 | 0 | 0.0 | 0.0 | 0.18 | 0.85 | 0.85 | 97 | 1008.9 |
| 20260506020803 | 49 | 0 | 0.0 | 0.0 | 0.19 | 0.85 | 0.85 | 97 | 1008.8 |
| 20260506020624 | 49 | 91 | 0.0 | 1.0 | 0.18 | 0.84 | 0.84 | 97 | 1008.7 |
| 20260506020503 | 49 | 85 | 0.0 | 1.0 | 0.18 | 0.84 | 0.84 | 97 | 1008.9 |
| 20260506020403 | 49 | 85 | 0.0 | 1.0 | 0.18 | 0.84 | 0.84 | 97 | 1008.9 |
| 20260506020024 | 49 | 88 | 0.0 | 1.0 | 0.17 | 0.82 | 0.83 | 97 | 1008.9 |
| 20260506015903 | 49 | 89 | 0.0 | 1.0 | 0.18 | 0.82 | 0.82 | 97 | 1008.9 |
| 20260506015503 | 49 | 99 | 0.0 | 1.0 | 0.18 | 0.81 | 0.81 | 97 | 1009.1 |
| 20260506015224 | 49 | 96 | 0.0 | 1.0 | 0.18 | 0.80 | 0.80 | 97 | 1009.1 |
| 20260506015103 | 49 | 93 | 0.0 | 1.0 | 0.18 | 0.80 | 0.80 | 97 | 1009.1 |
| 20260506014924 | 49 | 92 | 0.0 | 1.0 | 0.18 | 0.79 | 0.79 | 97 | 1008.9 |
| 20260506014703 | 49 | 92 | 0.0 | 1.0 | 0.17 | 0.78 | 0.78 | 97 | 1008.8 |
| 20260506014603 | 49 | 92 | 0.0 | 1.0 | 0.17 | 0.78 | 0.78 | 97 | 1008.9 |
| 20260506014403 | 49 | 101 | 0.0 | 1.0 | 0.16 | 0.77 | 0.77 | 97 | 1009.0 |
| 20260506014303 | 49 | 95 | 0.0 | 1.0 | 0.16 | 0.77 | 0.77 | 97 | 1008.8 |
| 20260506014124 | 49 | 95 | 0.0 | 1.0 | 0.15 | 0.76 | 0.76 | 97 | 1009.0 |
| 20260506013903 | 49 | 96 | 0.0 | 1.0 | 0.16 | 0.76 | 0.76 | 97 | 1009.1 |
| 20260506013603 | 49 | 91 | 0.0 | 1.0 | 0.15 | 0.75 | 0.75 | 97 | 1009.1 |
| 20260506013403 | 49 | 83 | 0.0 | 1.0 | 0.14 | 0.74 | 0.74 | 97 | 1008.9 |
| 20260506013124 | 49 | 90 | 0.0 | 1.0 | 0.13 | 0.73 | 0.73 | 97 | 1008.9 |
| 20260506012803 | 49 | 84 | 0.0 | 2.0 | 0.13 | 0.73 | 0.73 | 97 | 1008.8 |
| 20260506012703 | 49 | 92 | 0.0 | 2.0 | 0.12 | 0.72 | 0.72 | 97 | 1009.0 |
| 20260506012603 | 49 | 104 | 1.0 | 2.0 | 0.12 | 0.72 | 0.72 | 97 | 1008.8 |
| 20260506012403 | 49 | 117 | 1.0 | 2.0 | 0.12 | 0.72 | 0.72 | 97 | 1008.8 |
| 20260506012307 | 49 | 116 | 1.0 | 2.0 | 0.11 | 0.71 | 0.71 | 97 | 1008.9 |
| 20260506012102 | 49 | 108 | 1.0 | 3.0 | 0.10 | 0.70 | 0.70 | 97 | 1008.7 |
| 20260506012003 | 49 | 94 | 1.0 | 3.0 | 0.10 | 0.70 | 0.70 | 97 | 1008.8 |
| 20260506011824 | 49 | 187 | 2.0 | 4.0 | 0.09 | 0.69 | 0.69 | 97 | 1009.0 |
| 20260506011703 | 49 | 250 | 2.0 | 4.0 | 0.09 | 0.69 | 0.69 | 97 | 1009.1 |
| 20260506011603 | 49 | 258 | 2.0 | 4.0 | 0.09 | 0.69 | 0.69 | 97 | 1008.8 |
| 20260506011503 | 49 | 258 | 1.0 | 4.0 | 0.08 | 0.68 | 0.68 | 97 | 1008.8 |
| 20260506011403 | 49 | 260 | 2.0 | 4.0 | 0.08 | 0.68 | 0.68 | 97 | 1008.6 |
| 20260506011303 | 49 | 266 | 2.0 | 4.0 | 0.08 | 0.68 | 0.68 | 97 | 1008.3 |
| 20260506011103 | 49 | 257 | 2.0 | 4.0 | 0.07 | 0.67 | 0.67 | 97 | 1008.8 |
| 20260506011003 | 49 | 244 | 2.0 | 4.0 | 0.07 | 0.67 | 0.67 | 97 | 1009.1 |
| 20260506010903 | 49 | 200 | 1.0 | 4.0 | 0.06 | 0.66 | 0.66 | 97 | 1008.9 |
| 20260506010603 | 49 | 96 | 1.0 | 3.0 | 0.06 | 0.66 | 0.66 | 97 | 1008.5 |
| 20260506010403 | 49 | 91 | 1.0 | 3.0 | 0.06 | 0.66 | 0.66 | 97 | 1008.9 |
| 20260506010303 | 49 | 92 | 1.0 | 3.0 | 0.06 | 0.66 | 0.66 | 97 | 1008.7 |
| 20260506010203 | 49 | 89 | 0.0 | 2.0 | 0.05 | 0.65 | 0.65 | 97 | 1008.8 |
| 20260506005903 | 49 | 85 | 0.0 | 1.0 | 0.04 | 0.64 | 0.64 | 97 | 1008.5 |
| 20260506005803 | 49 | 82 | 0.0 | 1.0 | 0.04 | 0.64 | 0.64 | 97 | 1008.5 |
| 20260506005403 | 49 | 0 | 0.0 | 0.0 | 0.04 | 0.63 | 0.63 | 97 | 1008.6 |
| 20260506005124 | 49 | 0 | 0.0 | 0.0 | 0.03 | 0.62 | 0.62 | 97 | 1008.6 |
| 20260506005003 | 49 | 0 | 0.0 | 0.0 | 0.04 | 0.62 | 0.62 | 97 | 1008.5 |
| 20260506004803 | 49 | 0 | 0.0 | 0.0 | 0.03 | 0.61 | 0.61 | 97 | 1008.5 |
| 20260506004103 | 49 | 0 | 0.0 | 0.0 | 0.05 | 0.61 | 0.61 | 97 | 1008.3 |
| 20260506004024 | 49 | 0 | 0.0 | 0.0 | 0.05 | 0.61 | 0.61 | 97 | 1008.5 |
| 20260506003724 | 49 | 0 | 0.0 | 0.0 | 0.04 | 0.60 | 0.60 | 97 | 1008.3 |
| 20260506003603 | 49 | 0 | 0.0 | 0.0 | 0.05 | 0.60 | 0.60 | 97 | 1008.7 |
| 20260506003303 | 49 | 0 | 0.0 | 0.0 | 0.05 | 0.60 | 0.60 | 97 | 1008.5 |
| 20260506003203 | 49 | 0 | 0.0 | 0.0 | 0.05 | 0.60 | 0.60 | 97 | 1008.5 |
| 20260506003103 | 49 | 0 | 0.0 | 0.0 | 0.06 | 0.60 | 0.60 | 97 | 1008.5 |
| 20260506002903 | 49 | 0 | 0.0 | 0.0 | 0.06 | 0.60 | 0.60 | 97 | 1008.5 |
| 20260506002803 | 48 | 0 | 0.0 | 0.0 | 0.06 | 0.60 | 0.60 | 97 | 1008.5 |
| 20260506002624 | 48 | 0 | 0.0 | 0.0 | 0.07 | 0.60 | 0.60 | 97 | 1008.5 |
| 20260506002403 | 48 | 0 | 0.0 | 0.0 | 0.07 | 0.60 | 0.60 | 97 | 1008.5 |
| 20260506001803 | 48 | 95 | 0.0 | 1.0 | 0.09 | 0.60 | 0.60 | 97 | 1008.5 |
| 20260506001503 | 48 | 90 | 0.0 | 2.0 | 0.10 | 0.60 | 0.60 | 97 | 1008.5 |
| 20260506001403 | 48 | 90 | 0.0 | 2.0 | 0.10 | 0.60 | 0.60 | 97 | 1008.5 |
| 20260506000824 | 48 | 82 | 0.0 | 2.0 | 0.13 | 0.60 | 0.60 | 97 | 1008.3 |
| 20260506000703 | 48 | 82 | 0.0 | 2.0 | 0.14 | 0.60 | 0.60 | 96 | 1008.2 |
| 20260506000603 | 48 | 73 | 0.0 | 2.0 | 0.16 | 0.60 | 0.60 | 96 | 1008.5 |
| 20260506000303 | 49 | 101 | 0.0 | 1.0 | 0.20 | 0.60 | 0.60 | 97 | 1008.3 |
| 20260506000124 | 48 | 101 | 0.0 | 1.0 | 0.21 | 0.60 | 0.60 | 97 | 1008.5 |
| 20260506000003 | 48 | 104 | 0.0 | 1.0 | 0.22 | 0.60 | 0.60 | 96 | 1008.2 |
| 20260505235724 | 48 | 100 | 0.0 | 1.0 | 0.23 | 0.60 | 0.60 | 96 | 1008.3 |
| 20260505235603 | 48 | 100 | 0.0 | 1.0 | 0.22 | 0.59 | 0.59 | 96 | 1008.6 |
| 20260505235503 | 48 | 101 | 0.0 | 1.0 | 0.22 | 0.59 | 0.59 | 96 | 1008.5 |
| 20260505235305 | 48 | 59 | 0.0 | 4.0 | 0.22 | 0.59 | 0.59 | 96 | 1008.5 |
| 20260505235103 | 48 | 50 | 1.0 | 4.0 | 0.23 | 0.59 | 0.59 | 96 | 1008.7 |
| 20260505235003 | 48 | 56 | 1.0 | 4.0 | 0.22 | 0.58 | 0.58 | 96 | 1008.5 |
| 20260505234624 | 48 | 48 | 1.0 | 4.0 | 0.22 | 0.58 | 0.58 | 96 | 1008.6 |
| 20260505234403 | 48 | 45 | 1.0 | 4.0 | 0.21 | 0.57 | 0.57 | 96 | 1008.7 |
| 20260505234303 | 48 | 52 | 1.0 | 4.0 | 0.22 | 0.57 | 0.57 | 96 | 1008.7 |
| 20260505233503 | 48 | 68 | 1.0 | 3.0 | 0.20 | 0.55 | 0.55 | 96 | 1008.7 |
| 20260505233203 | 48 | 64 | 1.0 | 3.0 | 0.20 | 0.55 | 0.55 | 96 | 1008.8 |
| 20260505233103 | 48 | 69 | 1.0 | 6.0 | 0.19 | 0.54 | 0.54 | 96 | 1008.6 |
| 20260505232924 | 48 | 61 | 1.0 | 6.0 | 0.19 | 0.54 | 0.54 | 96 | 1008.5 |
| 20260505232603 | 48 | 62 | 1.0 | 6.0 | 0.19 | 0.53 | 0.53 | 96 | 1008.9 |
| 20260505232524 | 48 | 62 | 1.0 | 6.0 | 0.19 | 0.53 | 0.53 | 96 | 1008.3 |
| 20260505231903 | 48 | 44 | 2.0 | 6.0 | 0.18 | 0.51 | 0.51 | 96 | 1008.9 |
| 20260505231003 | 49 | 15 | 3.0 | 7.0 | 0.16 | 0.48 | 0.49 | 96 | 1008.8 |
| 20260505230803 | 49 | 11 | 3.0 | 8.0 | 0.15 | 0.47 | 0.47 | 96 | 1008.9 |
| 20260505230603 | 49 | 12 | 3.0 | 8.0 | 0.12 | 0.44 | 0.44 | 96 | 1009.0 |
| 20260505230124 | 49 | 19 | 3.0 | 8.0 | 0.07 | 0.39 | 0.39 | 96 | 1008.8 |
| 20260505230024 | 49 | 22 | 3.0 | 8.0 | 0.06 | 0.38 | 0.39 | 96 | 1008.9 |
| 20260505225903 | 49 | 23 | 3.0 | 7.0 | 0.06 | 0.38 | 0.38 | 96 | 1008.7 |
| 20260505225703 | 49 | 40 | 2.0 | 7.0 | 0.05 | 0.37 | 0.37 | 96 | 1008.6 |
| 20260505225403 | 49 | 49 | 2.0 | 7.0 | 0.06 | 0.37 | 0.37 | 96 | 1008.5 |
| 20260505225103 | 49 | 34 | 2.0 | 7.0 | 0.06 | 0.36 | 0.36 | 96 | 1008.6 |
| 20260505225024 | 50 | 38 | 2.0 | 7.0 | 0.06 | 0.36 | 0.36 | 96 | 1008.5 |
| 20260505224903 | 50 | 39 | 2.0 | 7.0 | 0.06 | 0.36 | 0.36 | 96 | 1008.2 |
| 20260505224803 | 50 | 41 | 2.0 | 7.0 | 0.06 | 0.36 | 0.36 | 96 | 1008.6 |
| 20260505224103 | 50 | 44 | 2.0 | 7.0 | 0.06 | 0.35 | 0.35 | 96 | 1008.3 |
| 20260505224003 | 50 | 42 | 2.0 | 7.0 | 0.06 | 0.35 | 0.35 | 96 | 1008.5 |
| 20260505223903 | 50 | 48 | 2.0 | 7.0 | 0.07 | 0.35 | 0.35 | 96 | 1008.5 |
| 20260505223703 | 50 | 49 | 2.0 | 7.0 | 0.07 | 0.35 | 0.35 | 96 | 1008.3 |
| 20260505223503 | 50 | 56 | 2.0 | 7.0 | 0.07 | 0.35 | 0.35 | 96 | 1008.7 |
| 20260505222603 | 51 | 30 | 2.0 | 6.0 | 0.09 | 0.34 | 0.34 | 96 | 1008.7 |
| 20260505222503 | 51 | 30 | 2.0 | 6.0 | 0.09 | 0.34 | 0.34 | 96 | 1008.5 |
| 20260505222424 | 51 | 31 | 2.0 | 6.0 | 0.09 | 0.34 | 0.34 | 96 | 1008.6 |
| 20260505222203 | 51 | 38 | 2.0 | 4.0 | 0.08 | 0.33 | 0.33 | 95 | 1008.6 |
| 20260505222103 | 51 | 46 | 2.0 | 4.0 | 0.08 | 0.33 | 0.33 | 96 | 1008.5 |
| 20260505221803 | 51 | 55 | 1.0 | 4.0 | 0.09 | 0.33 | 0.33 | 95 | 1008.5 |
| 20260505221603 | 51 | 63 | 1.0 | 3.0 | 0.09 | 0.33 | 0.33 | 95 | 1008.5 |
| 20260505221103 | 51 | 87 | 1.0 | 4.0 | 0.18 | 0.32 | 0.32 | 95 | 1008.3 |
| 20260505220903 | 51 | 86 | 1.0 | 4.0 | 0.19 | 0.32 | 0.32 | 95 | 1008.6 |
| 20260505220603 | 51 | 68 | 1.0 | 4.0 | 0.23 | 0.32 | 0.32 | 95 | 1008.6 |
| 20260505220403 | 51 | 66 | 1.0 | 4.0 | 0.24 | 0.32 | 0.32 | 95 | 1008.2 |
| 20260505220303 | 51 | 64 | 1.0 | 4.0 | 0.24 | 0.32 | 0.32 | 95 | 1008.5 |
| 20260505215824 | 51 | 47 | 2.0 | 4.0 | 0.25 | 0.33 | 0.32 | 95 | 1008.5 |
| 20260505215603 | 51 | 62 | 1.0 | 4.0 | 0.25 | 0.33 | 0.32 | 95 | 1008.5 |
| 20260505215503 | 51 | 62 | 2.0 | 4.0 | 0.24 | 0.32 | 0.31 | 95 | 1008.3 |
| 20260505215305 | 51 | 63 | 2.0 | 6.0 | 0.23 | 0.31 | 0.30 | 95 | 1008.3 |
| 20260505215103 | 51 | 48 | 2.0 | 8.0 | 0.23 | 0.31 | 0.30 | 95 | 1008.5 |
| 20260505215003 | 51 | 36 | 3.0 | 10.0 | 0.23 | 0.31 | 0.30 | 95 | 1008.3 |
| 20260505214924 | 51 | 40 | 3.0 | 10.0 | 0.23 | 0.31 | 0.30 | 95 | 1008.5 |
| 20260505214603 | 52 | 22 | 3.0 | 10.0 | 0.23 | 0.30 | 0.29 | 95 | 1008.6 |
| 20260505214303 | 52 | 21 | 4.0 | 11.0 | 0.23 | 0.30 | 0.29 | 95 | 1008.2 |
| 20260505214103 | 52 | 17 | 4.0 | 11.0 | 0.23 | 0.30 | 0.29 | 95 | 1008.3 |
| 20260505214003 | 52 | 17 | 4.0 | 11.0 | 0.23 | 0.30 | 0.29 | 95 | 1008.5 |
| 20260505213803 | 52 | 6 | 4.0 | 11.0 | 0.23 | 0.29 | 0.28 | 95 | 1008.3 |
| 20260505213603 | 53 | 7 | 4.0 | 11.0 | 0.23 | 0.29 | 0.28 | 95 | 1008.2 |
| 20260505213403 | 54 | 358 | 4.0 | 8.0 | 0.23 | 0.28 | 0.27 | 95 | 1008.2 |
| 20260505213203 | 54 | 2 | 3.0 | 8.0 | 0.23 | 0.28 | 0.27 | 95 | 1008.1 |
| 20260505212903 | 56 | 23 | 2.0 | 8.0 | 0.24 | 0.28 | 0.27 | 94 | 1008.1 |
| 20260505212703 | 57 | 43 | 1.0 | 7.0 | 0.23 | 0.27 | 0.26 | 95 | 1008.1 |
| 20260505212624 | 57 | 42 | 1.0 | 4.0 | 0.22 | 0.26 | 0.26 | 95 | 1008.1 |
| 20260505212403 | 57 | 100 | 0.0 | 3.0 | 0.23 | 0.26 | 0.25 | 94 | 1008.1 |
| 20260505212305 | 57 | 102 | 0.0 | 3.0 | 0.23 | 0.26 | 0.25 | 94 | 1008.0 |
| 20260505212103 | 57 | 218 | 0.0 | 3.0 | 0.23 | 0.26 | 0.25 | 94 | 1007.8 |
| 20260505211803 | 57 | 236 | 1.0 | 4.0 | 0.22 | 0.25 | 0.24 | 94 | 1007.7 |
| 20260505211624 | 57 | 228 | 1.0 | 4.0 | 0.22 | 0.25 | 0.24 | 94 | 1008.0 |
| 20260505211403 | 57 | 223 | 1.0 | 4.0 | 0.19 | 0.22 | 0.22 | 94 | 1008.1 |
| 20260505211203 | 57 | 198 | 1.0 | 4.0 | 0.13 | 0.16 | 0.15 | 94 | 1008.6 |
| 20260505211103 | 57 | 159 | 1.0 | 4.0 | 0.12 | 0.15 | 0.14 | 94 | 1008.6 |
| 20260505211003 | 57 | 111 | 1.0 | 3.0 | 0.12 | 0.15 | 0.14 | 94 | 1008.2 |
| 20260505210903 | 57 | 102 | 1.0 | 2.0 | 0.11 | 0.14 | 0.13 | 94 | 1008.1 |
| 20260505210524 | 57 | 104 | 1.0 | 2.0 | 0.07 | 0.10 | 0.09 | 94 | 1008.0 |
| 20260505210203 | 57 | 96 | 0.0 | 2.0 | 0.05 | 0.08 | 0.07 | 93 | 1007.8 |
| 20260505205924 | 57 | 106 | 0.0 | 1.0 | 0.05 | 0.08 | 0.07 | 93 | 1007.9 |
| 20260505205803 | 57 | 103 | 0.0 | 1.0 | 0.05 | 0.08 | 0.07 | 93 | 1007.9 |
| 20260505205624 | 57 | 91 | 0.0 | 1.0 | 0.05 | 0.08 | 0.07 | 93 | 1007.8 |
| 20260505205305 | 57 | 89 | 0.0 | 1.0 | 0.05 | 0.08 | 0.07 | 93 | 1007.9 |
| 20260505205124 | 57 | 91 | 0.0 | 1.0 | 0.05 | 0.08 | 0.07 | 93 | 1007.7 |
| 20260505205003 | 57 | 91 | 0.0 | 1.0 | 0.05 | 0.08 | 0.07 | 93 | 1007.7 |
| 20260505204903 | 57 | 91 | 0.0 | 1.0 | 0.06 | 0.08 | 0.07 | 93 | 1007.8 |
| 20260505204803 | 57 | 98 | 0.0 | 1.0 | 0.06 | 0.08 | 0.07 | 93 | 1007.7 |
| 20260505204703 | 57 | 100 | 0.0 | 2.0 | 0.06 | 0.08 | 0.07 | 93 | 1007.7 |
| 20260505204603 | 57 | 86 | 0.0 | 3.0 | 0.05 | 0.07 | 0.06 | 92 | 1007.8 |
| 20260505204403 | 57 | 71 | 0.0 | 3.0 | 0.05 | 0.07 | 0.06 | 92 | 1007.8 |
| 20260505204124 | 57 | 72 | 1.0 | 3.0 | 0.05 | 0.07 | 0.06 | 92 | 1007.8 |
| 20260505203903 | 57 | 76 | 1.0 | 3.0 | 0.05 | 0.07 | 0.06 | 92 | 1007.7 |
| 20260505203203 | 57 | 59 | 2.0 | 4.0 | 0.03 | 0.05 | 0.04 | 91 | 1008.1 |
| 20260505203103 | 57 | 59 | 2.0 | 4.0 | 0.03 | 0.05 | 0.04 | 91 | 1008.2 |
| 20260505203003 | 57 | 52 | 2.0 | 4.0 | 0.02 | 0.04 | 0.03 | 91 | 1008.0 |
| 20260505202603 | 57 | 55 | 2.0 | 6.0 | 0.02 | 0.04 | 0.03 | 91 | 1007.8 |
| 20260505202403 | 57 | 47 | 2.0 | 6.0 | 0.01 | 0.03 | 0.02 | 90 | 1007.9 |
| 20260505202306 | 58 | 55 | 2.0 | 6.0 | 0.01 | 0.03 | 0.02 | 90 | 1007.8 |
| 20260505202103 | 58 | 53 | 2.0 | 6.0 | 0.01 | 0.03 | 0.02 | 90 | 1007.9 |
| 20260505202003 | 58 | 55 | 2.0 | 6.0 | 0.01 | 0.03 | 0.02 | 90 | 1007.8 |
| 20260505201903 | 58 | 55 | 2.0 | 6.0 | 0.01 | 0.03 | 0.02 | 90 | 1007.9 |
| 20260505201703 | 58 | 55 | 2.0 | 6.0 | 0.01 | 0.03 | 0.02 | 89 | 1007.9 |
| 20260505201603 | 58 | 63 | 1.0 | 6.0 | 0.01 | 0.03 | 0.02 | 89 | 1007.8 |
| 20260505201503 | 58 | 67 | 1.0 | 6.0 | 0.01 | 0.03 | 0.02 | 89 | 1007.6 |
| 20260505201403 | 58 | 71 | 1.0 | 3.0 | 0.01 | 0.03 | 0.02 | 89 | 1007.8 |
| 20260505201303 | 58 | 70 | 1.0 | 3.0 | 0.01 | 0.03 | 0.02 | 89 | 1007.8 |
| 20260505201203 | 58 | 67 | 1.0 | 3.0 | 0.01 | 0.03 | 0.02 | 89 | 1007.7 |
| 20260505201103 | 59 | 75 | 2.0 | 4.0 | 0.01 | 0.03 | 0.02 | 89 | 1007.8 |
| 20260505201003 | 59 | 75 | 2.0 | 4.0 | 0.02 | 0.03 | 0.02 | 88 | 1007.8 |
| 20260505200924 | 59 | 71 | 2.0 | 4.0 | 0.02 | 0.03 | 0.02 | 88 | 1007.7 |
| 20260505200624 | 59 | 54 | 2.0 | 4.0 | 0.02 | 0.03 | 0.02 | 88 | 1007.7 |
| 20260505200503 | 59 | 47 | 2.0 | 6.0 | 0.02 | 0.03 | 0.02 | 87 | 1007.8 |
| 20260505200403 | 59 | 49 | 2.0 | 6.0 | 0.02 | 0.03 | 0.02 | 87 | 1007.8 |
| 20260505195924 | 60 | 39 | 2.0 | 6.0 | 0.02 | 0.03 | 0.02 | 85 | 1007.7 |
| 20260505195803 | 60 | 48 | 2.0 | 6.0 | 0.02 | 0.03 | 0.02 | 85 | 1007.9 |
| 20260505195703 | 60 | 52 | 2.0 | 6.0 | 0.02 | 0.03 | 0.02 | 85 | 1007.6 |
| 20260505195603 | 61 | 58 | 2.0 | 6.0 | 0.02 | 0.03 | 0.02 | 85 | 1007.8 |
| 20260505195403 | 61 | 83 | 2.0 | 3.0 | 0.02 | 0.03 | 0.02 | 84 | 1007.8 |
| 20260505195103 | 61 | 68 | 2.0 | 3.0 | 0.02 | 0.03 | 0.02 | 84 | 1007.8 |
| 20260505194824 | 61 | 56 | 1.0 | 3.0 | 0.01 | 0.02 | 0.01 | 83 | 1007.7 |
| 20260505194603 | 61 | 51 | 1.0 | 3.0 | 0.01 | 0.02 | 0.01 | 83 | 1007.8 |
| 20260505194103 | 61 | 66 | 1.0 | 3.0 | 0.01 | 0.02 | 0.01 | 83 | 1007.9 |
| 20260505193703 | 61 | 91 | 1.0 | 3.0 | 0.01 | 0.02 | 0.01 | 82 | 1007.7 |
| 20260505193603 | 61 | 93 | 1.0 | 3.0 | 0.01 | 0.02 | 0.01 | 82 | 1007.8 |
| 20260505193503 | 61 | 101 | 1.0 | 2.0 | 0.01 | 0.02 | 0.01 | 82 | 1007.7 |
| 20260505193203 | 62 | 113 | 0.0 | 2.0 | 0.01 | 0.02 | 0.01 | 82 | 1007.7 |
| 20260505192903 | 61 | 153 | 1.0 | 4.0 | 0.01 | 0.02 | 0.01 | 82 | 1007.9 |
| 20260505192703 | 61 | 183 | 1.0 | 4.0 | 0.01 | 0.02 | 0.01 | 81 | 1007.8 |
| 20260505192624 | 61 | 193 | 1.0 | 4.0 | 0.01 | 0.02 | 0.01 | 81 | 1007.7 |
| 20260505192503 | 62 | 198 | 1.0 | 4.0 | 0.01 | 0.02 | 0.01 | 81 | 1007.7 |
| 20260505192103 | 62 | 218 | 2.0 | 4.0 | 0.01 | 0.02 | 0.01 | 79 | 1007.8 |
| 20260505192003 | 62 | 226 | 2.0 | 6.0 | 0.01 | 0.02 | 0.01 | 80 | 1007.9 |
| 20260505191903 | 62 | 219 | 2.0 | 6.0 | 0.01 | 0.02 | 0.01 | 80 | 1007.9 |
| 20260505191603 | 62 | 218 | 2.0 | 6.0 | 0.01 | 0.02 | 0.01 | 79 | 1007.8 |
| 20260505191503 | 62 | 220 | 2.0 | 6.0 | 0.01 | 0.02 | 0.01 | 80 | 1007.9 |
| 20260505191103 | 62 | 213 | 2.0 | 6.0 | 0.01 | 0.02 | 0.01 | 78 | 1008.0 |
| 20260505190803 | 62 | 212 | 2.0 | 6.0 | 0.00 | 0.01 | 0.00 | 79 | 1008.1 |
| 20260505190503 | 62 | 213 | 2.0 | 7.0 | 0.00 | 0.01 | 0.00 | 77 | 1007.9 |
| 20260505190403 | 63 | 221 | 2.0 | 8.0 | 0.00 | 0.01 | 0.00 | 77 | 1007.8 |
| 20260505190203 | 63 | 221 | 3.0 | 8.0 | 0.00 | 0.01 | 0.00 | 77 | 1008.2 |
| 20260505185924 | 63 | 217 | 3.0 | 9.0 | 0.00 | 0.01 | 0.00 | 76 | 1008.0 |
| 20260505185324 | 64 | 194 | 3.0 | 9.0 | 0.00 | 0.01 | 0.00 | 72 | 1008.0 |
| 20260505185103 | 65 | 207 | 4.0 | 11.0 | 0.00 | 0.01 | 0.00 | 70 | 1008.0 |
| 20260505184824 | 65 | 221 | 4.0 | 11.0 | 0.00 | 0.01 | 0.00 | 70 | 1008.0 |
| 20260505184524 | 65 | 229 | 4.0 | 11.0 | 0.00 | 0.01 | 0.00 | 69 | 1008.1 |
| 20260505184424 | 65 | 234 | 5.0 | 11.0 | 0.00 | 0.01 | 0.00 | 68 | 1007.9 |
| 20260505184203 | 65 | 239 | 4.0 | 11.0 | 0.00 | 0.01 | 0.00 | 68 | 1008.1 |
| 20260505184103 | 65 | 235 | 4.0 | 10.0 | 0.00 | 0.01 | 0.00 | 68 | 1008.1 |
| 20260505183903 | 65 | 230 | 5.0 | 11.0 | 0.00 | 0.01 | 0.00 | 68 | 1008.1 |
| 20260505183724 | 65 | 227 | 5.0 | 11.0 | 0.00 | 0.01 | 0.00 | 68 | 1008.1 |
| 20260505183503 | 65 | 227 | 5.0 | 11.0 | 0.00 | 0.01 | 0.00 | 67 | 1008.2 |
| 20260505183403 | 65 | 228 | 5.0 | 11.0 | 0.00 | 0.01 | 0.00 | 68 | 1008.2 |
| 20260505183303 | 65 | 227 | 5.0 | 14.0 | 0.00 | 0.01 | 0.00 | 67 | 1008.1 |
| 20260505183103 | 65 | 231 | 5.0 | 14.0 | 0.00 | 0.01 | 0.00 | 67 | 1008.2 |
| 20260505183024 | 65 | 237 | 5.0 | 14.0 | 0.00 | 0.01 | 0.00 | 67 | 1008.0 |
| 20260505182903 | 65 | 241 | 5.0 | 14.0 | 0.00 | 0.01 | 0.00 | 67 | 1008.1 |
| 20260505182824 | 65 | 247 | 5.0 | 14.0 | 0.00 | 0.01 | 0.00 | 67 | 1008.2 |
| 20260505182603 | 65 | 252 | 4.0 | 14.0 | 0.00 | 0.01 | 0.00 | 67 | 1008.1 |
| 20260505182424 | 66 | 256 | 4.0 | 14.0 | 0.00 | 0.01 | 0.00 | 67 | 1008.1 |
| 20260505182103 | 65 | 246 | 4.0 | 9.0 | 0.00 | 0.01 | 0.00 | 67 | 1008.0 |
| 20260505182003 | 65 | 245 | 4.0 | 9.0 | 0.00 | 0.01 | 0.00 | 67 | 1008.0 |
| 20260505181803 | 65 | 236 | 4.0 | 10.0 | 0.00 | 0.01 | 0.00 | 67 | 1008.1 |
| 20260505181603 | 65 | 232 | 4.0 | 10.0 | 0.00 | 0.01 | 0.00 | 67 | 1008.0 |
| 20260505181303 | 65 | 216 | 4.0 | 13.0 | 0.00 | 0.01 | 0.00 | 67 | 1008.1 |
| 20260505181203 | 65 | 228 | 5.0 | 13.0 | 0.00 | 0.01 | 0.00 | 67 | 1008.1 |
| 20260505181103 | 65 | 233 | 5.0 | 13.0 | 0.00 | 0.01 | 0.00 | 67 | 1008.1 |
| 20260505181003 | 65 | 230 | 5.0 | 13.0 | 0.00 | 0.01 | 0.00 | 67 | 1008.1 |
| 20260505180903 | 65 | 220 | 5.0 | 13.0 | 0.00 | 0.01 | 0.00 | 67 | 1008.1 |
| 20260505180824 | 65 | 226 | 5.0 | 13.0 | 0.00 | 0.01 | 0.00 | 67 | 1007.9 |
| 20260505180703 | 65 | 231 | 5.0 | 13.0 | 0.00 | 0.01 | 0.00 | 67 | 1008.0 |
| 20260505180603 | 65 | 226 | 5.0 | 13.0 | 0.00 | 0.01 | 0.00 | 66 | 1007.9 |
| 20260505180403 | 66 | 219 | 5.0 | 13.0 | 0.00 | 0.01 | 0.00 | 66 | 1007.9 |
| 20260505180203 | 66 | 218 | 5.0 | 13.0 | 0.00 | 0.01 | 0.00 | 66 | 1008.0 |
| 20260505175903 | 66 | 217 | 5.0 | 13.0 | 0.00 | 0.01 | 0.00 | 65 | 1008.0 |
| 20260505175703 | 66 | 212 | 5.0 | 13.0 | 0.00 | 0.01 | 0.00 | 65 | 1007.9 |
| 20260505175603 | 66 | 207 | 5.0 | 13.0 | 0.00 | 0.01 | 0.00 | 65 | 1007.7 |
| 20260505175403 | 66 | 204 | 5.0 | 11.0 | 0.00 | 0.01 | 0.00 | 65 | 1008.0 |
| 20260505175305 | 66 | 212 | 4.0 | 11.0 | 0.00 | 0.01 | 0.00 | 65 | 1007.8 |
| 20260505174903 | 66 | 203 | 3.0 | 8.0 | 0.00 | 0.01 | 0.00 | 64 | 1007.8 |
| 20260505174603 | 67 | 220 | 4.0 | 8.0 | 0.00 | 0.01 | 0.00 | 64 | 1007.8 |
| 20260505174424 | 67 | 229 | 3.0 | 8.0 | 0.00 | 0.01 | 0.00 | 64 | 1007.9 |
| 20260505174103 | 66 | 238 | 4.0 | 8.0 | 0.00 | 0.01 | 0.00 | 65 | 1007.7 |
| 20260505173903 | 66 | 227 | 4.0 | 8.0 | 0.00 | 0.01 | 0.00 | 65 | 1007.6 |
| 20260505173603 | 66 | 233 | 4.0 | 9.0 | 0.00 | 0.01 | 0.00 | 65 | 1007.7 |
| 20260505173403 | 66 | 234 | 4.0 | 9.0 | 0.00 | 0.01 | 0.00 | 66 | 1007.9 |
| 20260505173124 | 66 | 235 | 4.0 | 10.0 | 0.00 | 0.01 | 0.00 | 65 | 1007.7 |
| 20260505172903 | 66 | 253 | 5.0 | 16.0 | 0.00 | 0.01 | 0.00 | 65 | 1007.9 |
| 20260505172824 | 66 | 256 | 5.0 | 16.0 | 0.00 | 0.01 | 0.00 | 65 | 1007.8 |
| 20260505172403 | 65 | 259 | 6.0 | 16.0 | 0.00 | 0.01 | 0.00 | 65 | 1007.7 |
| 20260505172103 | 65 | 262 | 6.0 | 16.0 | 0.00 | 0.01 | 0.00 | 65 | 1007.8 |
| 20260505172003 | 65 | 263 | 6.0 | 11.0 | 0.00 | 0.01 | 0.00 | 65 | 1007.7 |
| 20260505171903 | 66 | 257 | 6.0 | 11.0 | 0.00 | 0.01 | 0.00 | 66 | 1007.7 |
| 20260505171603 | 66 | 250 | 5.0 | 11.0 | 0.00 | 0.01 | 0.00 | 65 | 1007.7 |
| 20260505171503 | 66 | 251 | 5.0 | 13.0 | 0.00 | 0.01 | 0.00 | 65 | 1007.9 |
| 20260505171103 | 66 | 254 | 4.0 | 13.0 | 0.00 | 0.01 | 0.00 | 64 | 1007.6 |
| 20260505170903 | 66 | 240 | 4.0 | 13.0 | 0.00 | 0.01 | 0.00 | 64 | 1007.6 |
| 20260505170703 | 66 | 235 | 4.0 | 13.0 | 0.00 | 0.01 | 0.00 | 64 | 1007.6 |
| 20260505170403 | 66 | 240 | 5.0 | 11.0 | 0.00 | 0.01 | 0.00 | 64 | 1007.7 |
| 20260505170203 | 66 | 236 | 5.0 | 11.0 | 0.00 | 0.01 | 0.00 | 63 | 1007.7 |
| 20260505170024 | 67 | 232 | 5.0 | 11.0 | 0.00 | 0.01 | 0.00 | 64 | 1007.6 |
| 20260505165803 | 67 | 237 | 5.0 | 11.0 | 0.00 | 0.01 | 0.00 | 63 | 1007.8 |
| 20260505165503 | 67 | 226 | 5.0 | 11.0 | 0.00 | 0.01 | 0.00 | 63 | 1007.6 |
| 20260505165203 | 67 | 221 | 5.0 | 13.0 | 0.00 | 0.01 | 0.00 | 63 | 1007.6 |
| 20260505164903 | 67 | 229 | 5.0 | 13.0 | 0.00 | 0.01 | 0.00 | 62 | 1007.6 |
| 20260505164824 | 67 | 224 | 5.0 | 13.0 | 0.00 | 0.01 | 0.00 | 63 | 1007.6 |
| 20260505164703 | 67 | 223 | 5.0 | 13.0 | 0.00 | 0.01 | 0.00 | 63 | 1007.7 |
| 20260505164603 | 67 | 227 | 5.0 | 13.0 | 0.00 | 0.01 | 0.00 | 62 | 1007.5 |
| 20260505164303 | 67 | 235 | 6.0 | 17.0 | 0.00 | 0.01 | 0.00 | 62 | 1007.8 |
| 20260505164103 | 67 | 229 | 6.0 | 17.0 | 0.00 | 0.01 | 0.00 | 62 | 1007.6 |
| 20260505163903 | 67 | 225 | 6.0 | 17.0 | 0.00 | 0.01 | 0.00 | 62 | 1007.6 |
| 20260505163703 | 67 | 232 | 7.0 | 17.0 | 0.00 | 0.01 | 0.00 | 61 | 1007.6 |
| 20260505163603 | 67 | 234 | 7.0 | 17.0 | 0.00 | 0.01 | 0.00 | 61 | 1007.6 |
| 20260505163303 | 68 | 237 | 5.0 | 17.0 | 0.00 | 0.01 | 0.00 | 60 | 1007.6 |
| 20260505163203 | 68 | 238 | 6.0 | 17.0 | 0.00 | 0.01 | 0.00 | 60 | 1007.7 |
| 20260505162803 | 69 | 245 | 5.0 | 16.0 | 0.00 | 0.01 | 0.00 | 60 | 1007.4 |
| 20260505162603 | 69 | 235 | 5.0 | 16.0 | 0.00 | 0.01 | 0.00 | 60 | 1007.6 |
| 20260505162424 | 68 | 233 | 6.0 | 16.0 | 0.00 | 0.01 | 0.00 | 60 | 1007.4 |
| 20260505162306 | 68 | 231 | 6.0 | 16.0 | 0.00 | 0.01 | 0.00 | 59 | 1007.3 |
| 20260505162203 | 69 | 224 | 5.0 | 16.0 | 0.00 | 0.01 | 0.00 | 59 | 1007.5 |
| 20260505162103 | 69 | 214 | 5.0 | 16.0 | 0.00 | 0.01 | 0.00 | 59 | 1007.4 |
| 20260505162003 | 69 | 207 | 5.0 | 15.0 | 0.00 | 0.01 | 0.00 | 59 | 1007.6 |
| 20260505161903 | 69 | 205 | 6.0 | 15.0 | 0.00 | 0.01 | 0.00 | 59 | 1007.3 |
| 20260505161803 | 69 | 208 | 6.0 | 15.0 | 0.00 | 0.01 | 0.00 | 59 | 1007.3 |
| 20260505161703 | 69 | 214 | 6.0 | 15.0 | 0.00 | 0.01 | 0.00 | 59 | 1007.3 |
| 20260505161624 | 69 | 215 | 6.0 | 15.0 | 0.00 | 0.01 | 0.00 | 58 | 1007.3 |
| 20260505161103 | 70 | 230 | 6.0 | 16.0 | 0.00 | 0.01 | 0.00 | 57 | 1007.5 |
| 20260505161003 | 70 | 235 | 6.0 | 16.0 | 0.00 | 0.01 | 0.00 | 58 | 1007.2 |
| 20260505160703 | 69 | 246 | 7.0 | 16.0 | 0.00 | 0.01 | 0.00 | 57 | 1007.2 |
| 20260505160503 | 69 | 251 | 6.0 | 16.0 | 0.00 | 0.01 | 0.00 | 57 | 1007.2 |
| 20260505160424 | 69 | 244 | 6.0 | 16.0 | 0.00 | 0.01 | 0.00 | 57 | 1007.1 |
| 20260505160303 | 69 | 234 | 6.0 | 13.0 | 0.00 | 0.01 | 0.00 | 58 | 1007.4 |
| 20260505153303 | 68 | 224 | 4.0 | 15.0 | 0.00 | 0.01 | 0.00 | 58 | 1006.6 |
| 20260505153224 | 68 | 227 | 5.0 | 15.0 | 0.00 | 0.01 | 0.00 | 58 | 1006.7 |
| 20260505152903 | 69 | 235 | 6.0 | 19.0 | 0.00 | 0.01 | 0.00 | 58 | 1006.7 |
| 20260505152703 | 69 | 242 | 6.0 | 19.0 | 0.00 | 0.01 | 0.00 | 58 | 1006.7 |
| 20260505152603 | 68 | 242 | 6.0 | 19.0 | 0.00 | 0.01 | 0.00 | 59 | 1006.7 |
| 20260505152503 | 68 | 246 | 7.0 | 19.0 | 0.00 | 0.01 | 0.00 | 59 | 1006.7 |
| 20260505152403 | 67 | 250 | 8.0 | 19.0 | 0.00 | 0.01 | 0.00 | 60 | 1006.6 |
| 20260505152324 | 67 | 250 | 8.0 | 19.0 | 0.00 | 0.01 | 0.00 | 61 | 1006.7 |
| 20260505152103 | 67 | 244 | 8.0 | 19.0 | 0.00 | 0.01 | 0.00 | 60 | 1006.8 |
| 20260505152003 | 67 | 237 | 7.0 | 18.0 | 0.00 | 0.01 | 0.00 | 61 | 1006.9 |
| 20260505151903 | 67 | 235 | 7.0 | 18.0 | 0.00 | 0.01 | 0.00 | 61 | 1006.8 |
| 20260505151703 | 67 | 230 | 7.0 | 18.0 | 0.00 | 0.01 | 0.00 | 60 | 1007.1 |
| 20260505151603 | 67 | 232 | 7.0 | 18.0 | 0.00 | 0.01 | 0.00 | 60 | 1007.0 |
| 20260505151424 | 68 | 224 | 6.0 | 16.0 | 0.00 | 0.01 | 0.00 | 60 | 1007.0 |
| 20260505151203 | 68 | 225 | 6.0 | 15.0 | 0.00 | 0.01 | 0.00 | 60 | 1006.8 |
| 20260505151103 | 67 | 223 | 6.0 | 15.0 | 0.00 | 0.01 | 0.00 | 60 | 1006.9 |
| 20260505151003 | 67 | 227 | 5.0 | 15.0 | 0.00 | 0.01 | 0.00 | 60 | 1006.8 |
| 20260505150603 | 67 | 229 | 5.0 | 13.0 | 0.00 | 0.01 | 0.00 | 62 | 1006.7 |
| 20260505150403 | 67 | 230 | 5.0 | 13.0 | 0.00 | 0.01 | 0.00 | 60 | 1006.9 |
| 20260505140603 | 66 | 186 | 5.0 | 16.0 | 0.00 | 0.01 | 0.00 | 67 | 1006.5 |
| 20260505140303 | 66 | 181 | 4.0 | 13.0 | 0.00 | 0.01 | 0.00 | 67 | 1006.5 |